Regional Weather Roundup
Issued by NWS

Current Version | Previous Version | Text Only | Print | Product List | Glossary Off
Versions: 1 2 3 4 5 6 7 8 9 10 11 12 13 14 15 16 17 18 19 20 21 22 23 24 25 26 27 28 29 30 31 32 33 34 35 36 37 38 39 40 41 42 43 44 45 46 47 48 49 50

000
ASUS44 KBMX 131910
RWRAL

ALABAMA REGIONAL WEATHER ROUNDUP
NATIONAL WEATHER SERVICE BIRMINGHAM AL
100 PM CST SAT FEB 13 2016

NOTE: "FAIR" INDICATES FEW OR NO CLOUDS BELOW 12,000 FEET
WITH NO SIGNIFICANT WEATHER AND/OR OBSTRUCTIONS TO VISIBILITY.

THE REMARK "TC" DENOTES TEMPERATURE IN DEGREES CELSIUS.

ALZ001>011-014-016>018-020-132000-
NORTH ALABAMA

CITY           SKY/WX    TMP DP  RH WIND       PRES   REMARKS
MUSCLE SHOALS  SUNNY     36   5  27 N8        30.49F WCI  30
HUNTSVILLE     SUNNY     36   2  23 NE9       30.47F WCI  29
DECATUR        SUNNY     35   8  32 N9        30.50S WCI  28
HALEYVILLE     FAIR      37   8  30 N8G17     30.46F WCI  31
GADSDEN        SUNNY     39   9  29 N8        30.44F WCI  33
$$

ALZ012-013-022-023-030>036-040>044-132000-
WEST CENTRAL ALABAMA

CITY           SKY/WX    TMP DP  RH WIND       PRES   REMARKS
TUSCALOOSA     SUNNY     45   8  22 N6        30.46F
$$

ALZ015-024>027-033>036-040>044-132000-
CENTRAL ALABAMA

CITY           SKY/WX    TMP DP  RH WIND       PRES   REMARKS
BIRMINGHAM     SUNNY     42   7  23 N13       30.44F
MONTGOMERY     SUNNY     50   9  19 VRB5      30.41F
SHELBY CO ARPT SUNNY     43   9  24 VRB3      30.42F
MAXWELL AFB    SUNNY     49   9  19 N9        30.39F
GREENVILLE     FAIR      50   8  18 N12       30.36F
$$

ALZ019-021-028-029-037-038-045>048-132000-
EAST CENTRAL ALABAMA

CITY           SKY/WX    TMP DP  RH WIND       PRES   REMARKS
ANNISTON       SUNNY     41   5  22 N10       30.42F
ALEXANDER CITY SUNNY     46  14  28 N9        30.39F
AUBURN         SUNNY     47   8  20 N13G21    30.36F
$$

ALZ051>064-132000-
SOUTHWEST ALABAMA

CITY           SKY/WX    TMP DP  RH WIND       PRES   REMARKS
MOBILE         SUNNY     58  27  30 N10       30.38F
BROOKLEY FIELD SUNNY     56  27  32 NE15      30.40F
EVERGREEN      SUNNY     54  13  19 NW12      30.38F
$$

ALZ049-050-065>069-132000-
SOUTHEAST ALABAMA

CITY           SKY/WX    TMP DP  RH WIND       PRES   REMARKS
DOTHAN         SUNNY     54  13  19 N10       30.36F
OZARK          SUNNY     54  16  22 N9        30.34F
TROY           SUNNY     53  14  21 N13G21    30.38F
EUFAULA        FAIR      52  13  21 VRB5      30.34F
$$



USA.gov is the U.S. government's official web portal to all federal, state and local government web resources and services.